Zurück zum Katalog

S-Net D

S-NET D

AktivAmateurfunkSSO
NORAD 43186·PAYLOAD·🇩🇪 Germany

Gestartet Feb 1, 2018 von Vostochny Cosmodrome

Loading…

Nächste Überflüge (nächste 24 Stunden)

TLE

AktuellSource: AMSAT

Epoche: Sep 13, 2026, 17:11 UTC

1 43186U 18014G   26256.71615829  .00003337  00000-0  17035-3 0  9991
2 43186  97.5254 160.9482 0009835  74.6778 285.5542 15.17369169472181

Verfolge S-Net D in Echtzeit mit AllMySat

Download on the App Store